{"data":{"norad_id":47448,"intl_designator":"2021-006AM","name":"CUBEL","alt_names":[],"object_type":"PAYLOAD","status":"ACTIVE","operator":null,"country":"GER","launch_date":"2021-01-24","launch_site_code":"AFETR","launch_vehicle":null,"mission":null,"orbit_class":"UNKNOWN","rcs_meters":null,"size_class":null,"mass_kg":null,"dimensions":null,"purposes":[],"wikipedia_slug":null,"has_3d_model":false,"image_url":null,"decayed_at":null,"tle_current":{"epoch":"2026-09-20T09:11:29.591232Z","epoch_age_seconds":86686,"freshness":"FRESH","line1":"1 47448U 21006AM  26263.38298138  .00014825  00000+0  32461-3 0  9995","line2":"2 47448  97.2226 313.2068 0006351 171.3599 188.7760 15.44193001314430","mean_motion":15.44193001,"eccentricity":0.0006351,"inclination_deg":97.2226,"raan_deg":313.2068,"arg_perigee_deg":171.3599,"mean_anomaly_deg":188.776,"bstar":0.00032461,"rev_number":31443,"period_min":93.252592070258,"perigee_km":429.42408195733,"apogee_km":438.07654122051,"semimajor_km":6811.8873115889,"source":"CELESTRAK","updated_at":"2026-09-21T09:00:07.525184Z"}}}